Simultaneous Nadir Overpasses (SNOs) Predictions

Prediction of SNOs between GOES-17 and AQUA Satellite Orbit:

Table of predicted SNOs for the next 14.0 days since TLE Epoch: 1/9/2021
Index Date Time (GOES-17) GOES-17 Lat,Lon AQUA Lat,Lon Distance(km) Time Diff (sec)
1 01/09/2021 10:30:35 -0.03,-137.23 -0.64,-134.21 342.93 80
2 01/09/2021 22:52:00 0.02,-137.25 -0.44,-139.41 245.57 80
3 01/11/2021 22:42:28 0.01,-137.28 0.17,-136.45 94.82 80
4 01/12/2021 11:03:43 -0.00,-137.28 0.93,-141.60 491.19 80
5 01/13/2021 22:30:16 -0.02,-137.31 0.79,-133.49 434.83 80
6 01/14/2021 10:51:31 0.02,-137.31 0.32,-138.64 151.33 80
7 01/16/2021 10:36:40 0.02,-137.34 -0.36,-135.69 188.08 80
8 01/16/2021 22:58:03 -0.01,-137.35 -0.77,-140.88 400.96 80
9 01/18/2021 22:45:53 0.01,-137.37 -0.09,-137.93 62.44 80
10 01/20/2021 22:36:21 0.01,-137.39 0.54,-134.97 276.35 80
11 01/21/2021 10:57:35 0.01,-137.39 0.57,-140.12 309.68 80
